Date String (YYYY-MM-DD hh:mm:ss) UTC,Instrument flags,Ambient pressure (hPa),Sample flow (lpm),Bypass flow (lpm),Sample temperature (°C),Ambient temperature (°C),ASC tube jacket temperature (°C),LED temperature (°C),Box temperature (°C),Sample RH (%),Span deviation,Mass concentration (μg/m³),Mass concentration (μg/m³),Mass concentration (μg/m³)
DateTimeUTC,F1_M11,P_M11,Q1_M11,Q2_M11,T1_M11,T2_M11,T3_M11,T4_M11,T5_M11,U1_M11,ZSPAN_M11,X2_M11,X0_M11,X1_M11
2022-11-08 09:00:00,,0822.2,5.01,0.00,24.2,22.6,00.0,33.0,26.0,14.7,0002.0,0005.44,0013.75,0004.60
2022-11-08 09:01:00,,0822.1,5.00,0.00,24.1,22.5,00.0,33.0,26.0,14.5,0002.1,0005.39,0012.67,0004.56
2022-11-08 09:02:00,,0822.2,4.99,0.00,24.1,22.5,00.0,33.0,26.0,14.7,0002.6,0005.31,0012.62,0004.52
2022-11-08 09:03:00,,0822.1,4.99,0.00,24.1,22.5,00.0,33.0,26.0,14.5,0003.5,0005.27,0012.51,0004.49
2022-11-08 09:04:00,,0822.2,5.02,0.00,24.1,22.5,00.0,33.0,25.9,14.2,0003.4,0005.28,0013.01,0004.44
2022-11-08 09:05:00,,0822.2,4.99,0.00,24.1,22.5,00.0,33.0,26.0,13.6,0003.6,0005.17,0012.97,0004.32
2022-11-08 09:06:00,,0822.2,4.99,0.00,24.1,22.5,00.0,33.0,26.0,13.2,0003.3,0005.00,0012.69,0004.20
2022-11-08 09:07:00,,0822.2,5.00,0.00,24.1,22.5,00.0,33.0,25.9,14.0,0003.4,0004.84,0011.75,0004.11
2022-11-08 09:08:00,,0822.2,5.00,0.00,24.1,22.5,00.0,33.0,25.9,15.0,0003.3,0004.87,0012.04,0004.15
2022-11-08 09:09:00,,0822.2,5.01,0.00,24.1,22.5,00.0,33.0,25.9,14.8,0003.6,0004.91,0011.84,0004.19
2022-11-08 09:10:00,,0822.1,4.99,0.00,24.1,22.5,00.0,33.0,25.9,13.6,0003.1,0004.86,0010.74,0004.15
2022-11-08 09:11:00,,0822.1,5.00,0.00,24.1,22.5,00.0,33.0,25.9,13.3,0002.8,0004.76,0010.48,0004.06
2022-11-08 09:12:00,,0822.1,5.01,0.00,24.1,22.5,00.0,32.9,25.9,13.6,0003.5,0004.77,0010.68,0004.05
2022-11-08 09:13:00,,0822.1,5.00,0.00,24.1,22.5,00.0,32.9,25.9,14.0,0003.3,0004.81,0010.65,0004.09
2022-11-08 09:14:00,,0822.1,5.00,0.00,24.1,22.5,00.0,32.9,25.9,13.8,0003.2,0004.84,0011.46,0004.13
2022-11-08 09:15:00,,0822.2,5.01,0.00,24.0,22.5,00.0,32.9,25.9,13.4,0004.1,0004.73,0010.92,0004.07
2022-11-08 09:16:00,,0822.2,5.00,0.00,24.0,22.5,00.0,32.9,25.9,13.2,0004.1,0004.64,0010.81,0004.02
2022-11-08 09:17:00,,0822.2,5.00,0.00,24.0,22.5,00.0,32.9,25.9,13.1,0004.0,0004.63,0011.50,0003.99
2022-11-08 09:18:00,,0822.2,4.99,0.00,24.0,22.5,00.0,32.9,25.9,13.1,0003.4,0004.58,0011.53,0003.94
2022-11-08 09:19:00,,0822.2,5.01,0.00,24.0,22.5,00.0,32.9,25.9,13.7,0003.0,0004.46,0011.04,0003.84
2022-11-08 09:20:00,,0822.2,5.01,0.00,24.0,22.4,00.0,32.9,25.9,14.5,0002.9,0004.52,0011.03,0003.87
2022-11-08 09:21:00,,0822.2,5.00,0.00,24.0,22.4,00.0,32.9,25.9,13.8,0003.4,0004.54,0011.52,0003.92
2022-11-08 09:22:00,,0822.2,5.00,0.00,24.0,22.5,00.0,32.9,25.9,13.8,0003.5,0004.56,0011.93,0003.95
2022-11-08 09:23:00,,0822.2,5.00,0.00,24.0,22.4,00.0,32.9,25.9,13.7,0003.5,0004.49,0011.57,0003.92
2022-11-08 09:24:00,,0822.2,5.00,0.00,24.0,22.4,00.0,32.9,25.9,13.8,0003.8,0004.35,0011.45,0003.84
2022-11-08 09:25:00,,0822.2,5.01,0.00,24.0,22.4,00.0,32.9,25.9,14.2,0003.1,0004.37,0011.41,0003.84
2022-11-08 09:26:00,,0822.2,4.99,0.00,24.0,22.4,00.0,32.9,25.9,14.3,0002.0,0004.56,0012.65,0003.98
2022-11-08 09:27:00,,0822.2,5.00,0.00,24.0,22.4,00.0,32.8,25.9,14.3,0001.3,0004.78,0013.57,0004.14
2022-11-08 09:28:00,,0822.2,5.00,0.00,24.0,22.5,00.0,32.8,25.9,14.5,0001.8,0004.98,0013.58,0004.33
2022-11-08 09:29:00,,0822.2,5.00,0.00,24.0,22.5,00.0,32.9,25.9,14.6,0002.3,0005.23,0014.02,0004.53
2022-11-08 09:30:00,,0822.2,5.00,0.00,24.0,22.5,00.0,32.8,25.9,14.5,0001.9,0005.30,0014.38,0004.64
2022-11-08 09:31:00,,0822.1,5.00,0.00,24.0,22.5,00.0,32.8,25.9,14.4,0000.9,0005.25,0014.45,0004.63
2022-11-08 09:32:00,,0822.1,4.99,0.00,24.0,22.5,00.0,32.8,25.9,14.4,0000.3,0005.35,0014.29,0004.70
2022-11-08 09:33:00,,0822.1,5.00,0.00,24.0,22.5,00.0,32.8,25.9,14.1,0000.4,0005.48,0015.24,0004.82
2022-11-08 09:34:00,,0822.2,5.00,0.00,24.0,22.5,00.0,32.8,25.9,14.3,0000.0,0005.63,0016.13,0004.93
2022-11-08 09:35:00,,0822.2,5.00,0.00,24.0,22.5,00.0,32.8,25.9,14.4,-000.2,0005.79,0015.97,0005.06
2022-11-08 09:36:00,,0822.3,5.01,0.00,24.0,22.5,00.0,32.8,25.9,14.0,-000.2,0005.78,0015.24,0005.06
2022-11-08 09:37:00,,0822.3,5.00,0.00,24.0,22.5,00.0,32.8,25.9,14.1,0000.0,0005.69,0014.28,0004.98
2022-11-08 09:38:00,,0822.2,5.00,0.00,24.0,22.5,00.0,32.8,25.9,14.1,0001.1,0005.69,0013.88,0004.97
2022-11-08 09:39:00,,0822.0,4.99,0.00,24.0,22.5,00.0,32.8,25.9,14.6,0001.5,0005.70,0013.55,0004.98
2022-11-08 09:40:00,,0822.1,5.00,0.00,24.0,22.5,00.0,32.8,25.9,14.8,0001.5,0005.74,0015.77,0005.01
2022-11-08 09:41:00,,0822.1,5.01,0.00,24.0,22.5,00.0,32.8,25.9,15.0,0002.0,0005.87,0016.08,0005.09
2022-11-08 09:42:00,,0822.2,5.00,0.00,24.0,22.5,00.0,32.8,25.9,14.9,0002.9,0005.93,0016.21,0005.13
2022-11-08 09:43:00,,0822.3,5.00,0.00,23.9,22.5,00.0,32.8,25.8,14.8,0003.6,0006.01,0016.50,0005.17
2022-11-08 09:44:00,,0822.3,5.00,0.00,23.9,22.4,00.0,32.8,25.8,14.8,0003.5,0006.10,0016.50,0005.23
2022-11-08 09:45:00,,0822.2,5.00,0.00,23.9,22.3,00.0,32.8,25.7,14.9,0003.2,0006.16,0015.85,0005.30
2022-11-08 09:46:00,,0822.1,5.01,0.00,23.9,22.3,00.0,32.8,25.7,15.1,0002.9,0006.26,0016.05,0005.40
2022-11-08 09:47:00,,0822.0,5.00,0.00,23.9,22.4,00.0,32.8,25.7,15.2,0002.8,0006.39,0016.16,0005.52
2022-11-08 09:48:00,,0822.0,5.00,0.00,23.9,22.4,00.0,32.8,25.7,15.2,0002.7,0006.62,0016.45,0005.71
2022-11-08 09:49:00,,0822.1,5.00,0.00,23.9,22.4,00.0,32.7,25.7,15.1,0002.4,0006.74,0016.77,0005.84
2022-11-08 09:50:00,,0822.2,5.00,0.00,23.9,22.4,00.0,32.7,25.7,14.6,0002.3,0006.76,0017.08,0005.87
2022-11-08 09:51:00,,0822.2,4.99,0.00,23.9,22.4,00.0,32.7,25.7,14.0,0002.2,0006.53,0014.65,0005.70
2022-11-08 09:52:00,,0822.3,4.99,0.00,23.9,22.4,00.0,32.7,25.7,13.9,0002.2,0006.24,0013.79,0005.49
2022-11-08 09:53:00,,0822.3,5.01,0.00,23.9,22.4,00.0,32.7,25.7,13.6,0002.1,0006.03,0013.13,0005.31
2022-11-08 09:54:00,,0822.2,5.00,0.00,23.9,22.3,00.0,32.7,25.7,13.0,0001.8,0005.73,0012.28,0005.08
2022-11-08 09:55:00,,0822.2,4.99,0.00,23.9,22.3,00.0,32.8,25.6,12.8,0002.0,0005.46,0010.96,0004.86
2022-11-08 09:56:00,,0822.1,5.00,0.00,23.9,22.4,00.0,32.8,25.7,13.2,0002.5,0005.21,0010.50,0004.63
2022-11-08 09:57:00,,0822.1,5.00,0.00,23.9,22.3,00.0,32.7,25.7,13.3,0003.2,0004.91,0010.09,0004.37
2022-11-08 09:58:00,,0822.0,5.01,0.00,23.9,22.3,00.0,32.7,25.7,13.2,0003.6,0004.63,0009.74,0004.12
2022-11-08 09:59:00,,0822.0,4.98,0.00,23.9,22.3,00.0,32.7,25.7,13.3,0004.0,0004.28,0008.94,0003.85
